N1TKS Weather Reports


Display with metric or nautical units.
time (UTC)temp
F
wind
direction
speed
MPH
gust
MPH
rain 1hr
in
rain 24hr
in
rain mn
in
humidity
%
barometer
mb
20260504160249 67 211 3.0 12.0 0.00 0.00 0.00 38 1012.5
20260504150912 65 234 5.0 12.0 0.00 0.00 0.00 40 1013.1
20260504150153 65 234 5.0 12.0 0.00 0.00 0.00 40 1013.1
20260504141153 62 237 3.0 5.0 0.00 0.00 0.00 44 1013.5
20260504140919 61 251 2.0 3.0 0.00 0.00 0.00 48 1013.7
20260504140751 62 227 7.0 7.0 0.00 0.00 0.00 42 1013.5
20260504140654 62 227 7.0 7.0 0.00 0.00 0.00 42 1013.5
20260504130514 57 240 3.0 3.0 0.00 0.00 0.00 50 1014.2
20260504130154 59 232 2.0 9.0 0.00 0.00 0.00 51 1014.0
20260504120257 56 235 2.0 5.0 0.00 0.00 0.00 49 1014.2
20260504120154 56 235 2.0 5.0 0.00 0.00 0.00 49 1014.2
20260504120109 54 239 2.0 3.0 0.00 0.00 0.00 54 1014.1
20260504110654 51 235 2.0 3.0 0.00 0.00 0.00 58 1014.2
20260504110153 51 234 2.0 5.0 0.00 0.00 0.00 59 1014.2
20260504081652 52 255 2.0 3.0 0.00 0.00 0.00 53 1013.4
20260504081153 52 248 2.0 2.0 0.00 0.00 0.00 53 1013.4
20260504080235 52 243 1.0 2.0 0.00 0.00 0.00 54 1013.2
20260504080153 52 264 2.0 3.0 0.00 0.00 0.00 53 1013.3
20260504070153 44 263 1.0 2.0 0.00 0.00 0.00 74 1013.0
20260504060152 43 263 0.0 0.0 0.00 0.00 0.00 79 1013.0
20260504050153 43 263 0.0 0.0 0.00 0.00 0.00 79 1012.9
20260504045555 44 263 0.0 0.0 0.00 0.00 0.00 78 1012.8
20260504045154 44 263 0.0 0.0 0.00 0.00 0.00 78 1012.8
20260504044756 44 263 0.0 0.0 0.00 0.00 0.00 78 1012.8
20260504044654 44 263 0.0 0.0 0.00 0.00 0.00 78 1012.8
20260504044152 44 263 0.0 0.0 0.00 0.00 0.00 77 1012.8
20260504043653 44 263 0.0 0.0 0.00 0.00 0.00 77 1012.7
20260504043618 44 263 0.0 0.0 0.00 0.00 0.00 76 1012.7
20260504043152 44 263 0.0 0.0 0.00 0.00 0.00 76 1012.7
20260504042706 44 263 0.0 0.0 0.00 0.00 0.00 75 1012.7
20260504042243 44 263 0.0 0.0 0.00 0.00 0.00 75 1012.7
20260504042154 44 263 0.0 0.0 0.00 0.00 0.00 75 1012.7
20260504041654 45 263 0.0 0.0 0.00 0.00 0.00 75 1012.6
20260504040152 45 263 0.0 0.0 0.00 0.00 0.00 74 1012.6
20260504040059 46 263 0.0 0.0 0.00 0.00 0.00 71 1012.6
20260504035653 45 263 0.0 0.0 0.00 0.00 0.00 73 1012.5
20260504035154 46 263 0.0 0.0 0.00 0.00 0.00 73 1012.6
20260504034652 46 263 0.0 0.0 0.00 0.00 0.00 72 1012.5
20260504033654 46 263 0.0 0.0 0.00 0.00 0.00 71 1012.6
20260504033153 46 263 0.0 0.0 0.00 0.00 0.00 71 1012.6
20260504032652 46 263 0.0 0.0 0.00 0.00 0.00 70 1012.5
20260504032153 47 263 0.0 0.0 0.00 0.00 0.00 70 1012.5
20260504031654 47 263 0.0 0.0 0.00 0.00 0.00 70 1012.6
20260504031152 47 263 0.0 0.0 0.00 0.00 0.00 69 1012.5
20260504030653 47 263 0.0 0.0 0.00 0.00 0.00 68 1012.5
20260504030154 47 263 0.0 0.0 0.00 0.00 0.00 67 1012.5
20260504025710 49 263 0.0 0.0 0.00 0.00 0.00 63 1012.6
20260504025702 49 263 0.0 0.0 0.00 0.00 0.00 61 1012.6
20260504025652 48 263 0.0 0.0 0.00 0.00 0.00 65 1012.5
20260504025233 48 263 0.0 0.0 0.00 0.00 0.00 65 1012.5
20260504025153 48 263 0.0 0.0 0.00 0.00 0.00 65 1012.5
20260504024653 48 263 0.0 0.0 0.00 0.00 0.00 64 1012.6
20260504024158 48 263 0.0 0.0 0.00 0.00 0.00 64 1012.6
20260504023752 49 263 0.0 0.0 0.00 0.00 0.00 63 1012.6
20260504023653 49 263 0.0 0.0 0.00 0.00 0.00 63 1012.6
20260504023154 49 263 0.0 0.0 0.00 0.00 0.00 61 1012.6
20260504022906 49 263 0.0 0.0 0.00 0.00 0.00 62 1012.6
20260504022503 50 263 0.0 0.0 0.00 0.00 0.00 59 1012.4
20260504022154 49 263 0.0 0.0 0.00 0.00 0.00 62 1012.6
20260504021654 49 263 0.0 0.0 0.00 0.00 0.00 62 1012.6
20260504021155 50 263 0.0 0.0 0.00 0.00 0.00 61 1012.5
20260504020154 50 263 0.0 0.0 0.00 0.00 0.00 59 1012.4
20260504015309 52 263 0.0 0.0 0.00 0.00 0.00 53 1012.2
20260504015253 52 263 0.0 0.0 0.00 0.00 0.00 52 1012.2
20260504013654 52 263 0.0 0.0 0.00 0.00 0.00 53 1012.3
20260504013154 52 263 0.0 0.0 0.00 0.00 0.00 53 1012.2
20260504012154 52 263 0.0 0.0 0.00 0.00 0.00 52 1012.2
20260504012058 54 263 0.0 0.0 0.00 0.00 0.00 46 1011.9
20260504011735 52 263 0.0 0.0 0.00 0.00 0.00 51 1012.1
20260504011654 52 263 0.0 0.0 0.00 0.00 0.00 51 1012.1
20260504010654 53 263 0.0 0.0 0.00 0.00 0.00 49 1012.1
20260504010155 53 263 0.0 0.0 0.00 0.00 0.00 47 1012.0
20260504005654 54 263 0.0 0.0 0.00 0.00 0.00 46 1011.9
20260504005154 54 263 0.0 0.0 0.00 0.00 0.00 46 1011.9
20260504004856 55 263 0.0 0.0 0.00 0.00 0.00 43 1011.7
20260504004655 54 263 0.0 0.0 0.00 0.00 0.00 45 1011.8
20260504004156 55 263 0.0 0.0 0.00 0.00 0.00 45 1011.8
20260504003807 55 263 0.0 0.0 0.00 0.00 0.00 43 1011.7
20260504003655 55 263 0.0 0.0 0.00 0.00 0.00 43 1011.7
20260504003156 56 263 0.0 0.0 0.00 0.00 0.00 41 1011.6
20260504003153 56 263 0.0 0.0 0.00 0.00 0.00 41 1011.4
20260504002654 56 263 0.0 0.0 0.00 0.00 0.00 41 1011.4
20260504001655 57 263 0.0 0.0 0.00 0.00 0.00 37 1011.3
20260504001238 57 263 0.0 0.0 0.00 0.00 0.00 38 1011.3
20260504001154 57 263 0.0 0.0 0.00 0.00 0.00 38 1011.3
20260504000154 58 263 1.0 2.0 0.00 0.00 0.00 35 1011.2
20260503234454 60 286 2.0 3.0 0.00 0.00 0.00 30 1010.6
20260503234153 59 256 3.0 6.0 0.00 0.00 0.00 33 1010.9
20260503233155 59 265 5.0 9.0 0.00 0.00 0.00 32 1010.7
20260503231655 60 286 2.0 3.0 0.00 0.00 0.00 30 1010.6
20260503231257 61 263 5.0 8.0 0.00 0.00 0.00 29 1010.3
20260503231157 60 272 6.0 12.0 0.00 0.00 0.00 30 1010.6
20260503230654 61 275 3.0 3.0 0.00 0.00 0.00 30 1010.5
20260503230305 61 268 6.0 10.0 0.00 0.00 0.00 30 1010.4
20260503230153 61 268 6.0 10.0 0.00 0.00 0.00 30 1010.4
20260503225654 61 286 3.0 7.0 0.00 0.00 0.00 29 1010.3
20260503225154 61 286 5.0 9.0 0.00 0.00 0.00 29 1010.3
20260503224653 61 263 5.0 8.0 0.00 0.00 0.00 29 1010.3
20260503224347 61 268 7.0 12.0 0.00 0.00 0.00 29 1010.3
20260503224154 61 268 7.0 12.0 0.00 0.00 0.00 29 1010.3
20260503223154 61 276 7.0 12.0 0.00 0.00 0.00 29 1010.3
20260503222654 60 261 7.0 12.0 0.00 0.00 0.00 29 1010.3
20260503222157 60 278 9.0 12.0 0.00 0.00 0.00 28 1010.3
20260503220904 61 230 7.0 8.0 0.00 0.00 0.00 29 1010.4
20260503220653 61 287 6.0 10.0 0.00 0.00 0.00 28 1010.4
20260503215830 61 315 10.0 16.0 0.00 0.00 0.00 28 1010.4
20260503215655 61 315 10.0 16.0 0.00 0.00 0.00 28 1010.4
20260503214653 61 230 7.0 8.0 0.00 0.00 0.00 29 1010.4
20260503214144 60 269 13.0 18.0 0.00 0.00 0.00 28 1010.2
20260503213655 60 269 13.0 18.0 0.00 0.00 0.00 28 1010.2
20260503213149 60 328 7.0 8.0 0.00 0.00 0.00 29 1010.0
20260503212655 60 328 7.0 8.0 0.00 0.00 0.00 29 1010.0
20260503212157 60 297 7.0 15.0 0.00 0.00 0.00 30 1010.0
20260503211653 60 296 8.0 16.0 0.00 0.00 0.00 31 1010.1
20260503210451 59 1 5.0 8.0 0.00 0.00 0.00 33 1010.2
20260503210154 59 285 8.0 18.0 0.00 0.00 0.00 31 1010.2
20260503205654 59 260 8.0 13.0 0.00 0.00 0.00 31 1010.1
20260503204654 59 263 9.0 13.0 0.00 0.00 0.00 31 1010.1
20260503203654 59 1 5.0 8.0 0.00 0.00 0.00 33 1010.2
20260503202654 58 292 12.0 17.0 0.00 0.00 0.00 32 1010.3
20260503202442 59 273 9.0 15.0 0.00 0.00 0.00 32 1010.4
20260503202153 59 273 9.0 15.0 0.00 0.00 0.00 32 1010.4
20260503201156 59 302 6.0 8.0 0.00 0.00 0.00 33 1010.2
20260503200653 58 293 9.0 20.0 0.00 0.00 0.00 34 1010.2
20260503200154 58 258 9.0 9.0 0.00 0.00 0.00 33 1010.3
20260503200054 57 295 7.0 12.0 0.00 0.00 0.00 35 1010.4
20260503195730 58 248 9.0 17.0 0.00 0.00 0.00 34 1010.3
20260503195653 58 248 9.0 17.0 0.00 0.00 0.00 34 1010.3
20260503195154 57 271 6.0 14.0 0.00 0.00 0.00 36 1010.4
20260503193654 57 295 7.0 12.0 0.00 0.00 0.00 35 1010.4
20260503193156 57 251 7.0 12.0 0.00 0.00 0.00 36 1010.5
20260503192958 57 285 9.0 15.0 0.00 0.00 0.00 37 1010.6
20260503192848 56 263 9.0 15.0 0.00 0.00 0.00 37 1010.8
20260503192656 57 285 9.0 15.0 0.00 0.00 0.00 37 1010.6
20260503191655 56 323 3.0 7.0 0.00 0.00 0.00 37 1010.8
20260503190154 56 263 9.0 15.0 0.00 0.00 0.00 37 1010.8
20260503185647 55 295 8.0 17.0 0.00 0.00 0.00 40 1011.1
20260503185155 55 292 12.0 17.0 0.00 0.00 0.00 38 1010.9
20260503184653 55 295 8.0 17.0 0.00 0.00 0.00 40 1011.1
20260503184051 55 258 9.0 15.0 0.00 0.00 0.00 39 1011.1
20260503184044 55 268 9.0 12.0 0.00 0.00 0.00 39 1011.2
20260503183654 55 258 9.0 15.0 0.00 0.00 0.00 39 1011.1
20260503183153 55 268 9.0 12.0 0.00 0.00 0.00 39 1011.2
20260503183053 55 272 12.0 20.0 0.00 0.00 0.00 40 1011.2
20260503183043 55 301 8.0 13.0 0.00 0.00 0.00 39 1011.3
20260503182654 55 272 12.0 20.0 0.00 0.00 0.00 40 1011.2
20260503182157 55 301 8.0 13.0 0.00 0.00 0.00 39 1011.3
20260503181156 54 289 7.0 10.0 0.00 0.00 0.00 40 1011.1
20260503180730 54 252 8.0 12.0 0.00 0.00 0.00 39 1011.1
20260503180654 54 252 8.0 12.0 0.00 0.00 0.00 39 1011.1
20260503180156 54 270 8.0 12.0 0.00 0.00 0.00 40 1011.2
20260503175653 54 280 13.0 18.0 0.00 0.00 0.00 39 1011.3
20260503175154 54 296 8.0 12.0 0.00 0.00 0.00 40 1011.1
20260503174154 54 270 10.0 12.0 0.00 0.00 0.00 39 1011.3
20260503173154 54 294 12.0 16.0 0.00 0.00 0.00 38 1011.2
20260503172653 54 252 10.0 12.0 0.00 0.00 0.00 40 1011.1
20260503172228 54 297 10.0 15.0 0.00 0.00 0.00 38 1011.1
20260503172153 54 297 10.0 15.0 0.00 0.00 0.00 38 1011.1
20260503171747 54 268 10.0 17.0 0.00 0.00 0.00 38 1011.1
20260503171654 54 268 10.0 17.0 0.00 0.00 0.00 38 1011.1
20260503171236 54 286 12.0 16.0 0.00 0.00 0.00 37 1011.1
20260503171154 54 286 12.0 16.0 0.00 0.00 0.00 37 1011.1
20260503170654 54 262 10.0 20.0 0.00 0.00 0.00 38 1011.1